Regional Weather Roundup
Issued by NWS

Home | Current Version | Previous Version | Text Only | Print | Product List | Glossary Off
Versions: 1 2 3 4 5 6 7 8 9 10 11 12 13 14 15 16 17 18 19 20 21 22 23 24 25 26 27 28 29 30 31 32 33 34 35 36 37 38 39 40 41 42 43 44 45 46 47 48 49 50

000
ASUS45 KBOI 030410
RWRID

IDAHO REGIONAL WEATHER ROUNDUP
NATIONAL WEATHER SERVICE BOISE ID
1000 PM MDT WED SEP 02 2015

NOTE: "FAIR" INDICATES FEW OR NO CLOUDS BELOW 12000 FEET
WITH NO SIGNIFICANT WEATHER AND/OR OBSTRUCTIONS TO VISIBILITY

IDZ012-014-030500-
SOUTHWEST IDAHO


CITY           SKY/WX    TMP DP  RH WIND       PRES   REMARKS
BOISE          MOCLDY    72  39  30 NW8       29.73R
CALDWELL       MOCLDY    66  39  37 W10       29.75R
MOUNTAIN HOME  CLEAR     69  37  31 W9        29.73R
$$

IDZ016-017-030500-
SOUTHCENTRAL IDAHO


CITY           SKY/WX    TMP DP  RH WIND       PRES   REMARKS
BURLEY         PTCLDY    63  49  60 CALM      29.78R
JEROME         PTCLDY    68  38  33 E7        29.78R
TWIN FALLS     MOCLDY    72  32  23 SE8       29.78S
$$

IDZ019>023-030500-
SOUTHEAST IDAHO


CITY           SKY/WX    TMP DP  RH WIND       PRES   REMARKS
IDAHO FALLS    LGT RAIN  77  37  23 SW12G32   29.86R
POCATELLO      PTCLDY    69  45  41 E5        29.83S
REXBURG        PTCLDY    74  34  23 S9        29.87R
$$

IDZ006-010-011-018-031-032-030500-
CENTRAL IDAHO MOUNTAINS


CITY           SKY/WX    TMP DP  RH WIND       PRES   REMARKS
MCCALL         CLOUDY    57  41  55 W6        29.87R
HAILEY         PTCLDY    57  37  47 W7        29.89R
STANLEY          N/A     50  30  46 S5        29.94S
SALMON         MOCLDY    64  34  32 NE3       29.77R
CHALLIS        PTCLDY    65  28  24 CALM      29.83R
$$

IDZ002-004-006-007-026-030500-
NORTHERN IDAHO


CITY           SKY/WX    TMP DP  RH WIND       PRES   REMARKS
LEWISTON       CLOUDY    64  45  49 E8        29.86F
LOWELL           N/A     62  50  64 CALM      29.89R
COEUR D`ALENE  PTCLDY    57  45  62 S9        29.87R
MULLAN PASS    CLOUDY    41  36  82 S5        29.96S
$$



USA.gov is the U.S. government's official web portal to all federal, state and local government web resources and services.